Regional Weather Roundup
Issued by NWS

Home | Current Version | Previous Version | Graphics & Text | Print | Product List | Glossary On
Versions: 1 2 3 4 5 6 7 8 9 10 11 12 13 14 15 16 17 18 19 20 21 22 23 24 25 26 27 28 29 30 31 32 33 34 35 36 37 38 39 40 41 42 43 44 45 46 47 48 49 50
000
ASUS45 KPSR 052300
RWRAZ

ARIZONA REGIONAL HOURLY WEATHER ROUNDUP
NATIONAL WEATHER SERVICE PHOENIX AZ
400 PM MST THU MAR 05 2015

NOTE: FAIR INDICATES FEW OR NO CLOUDS BELOW 12,000 FEET WITH NO
SIGNIFICANT WEATHER AND/OR OBSTRUCTIONS TO VISIBILITY.

AZZ001>003-036-060000-
NORTHWEST ARIZONA

CITY           SKY/WX    TMP DP  RH WIND       PRES   REMARKS
KINGMAN        SUNNY     62  23  22 N10       30.29F
$$

AZZ004>008-015-016-018-060000-
NORTH CENTRAL ARIZONA

CITY           SKY/WX    TMP DP  RH WIND       PRES   REMARKS
GRAND CANYON   SUNNY     48  -5  11 NW3       30.36R
PRESCOTT       SUNNY     58   5  12 N9        30.29S
FLAGSTAFF      NOT AVBL
PAYSON         SUNNY     59  21  23 VRB5      30.29S
PAGE           SUNNY     51  21  30 CALM      30.35S
$$

AZZ009>014-017-060000-
NORTHEAST ARIZONA

CITY           SKY/WX    TMP DP  RH WIND       PRES   REMARKS
WINSLOW        NOT AVBL
SAINT JOHNS    SUNNY     55  -2   9 N7        30.30S
WINDOW ROCK    SUNNY     52   1  12 N12       30.32R
$$

AZZ023-060000-
GREATER PHOENIX AREA

CITY           SKY/WX    TMP DP  RH WIND       PRES   REMARKS
PHOENIX        SUNNY     73  10   9 NE7       30.16F
GLENDALE       SUNNY     73   9   8 N5        30.19F
DEER VALLEY    SUNNY     72   7   8 E5        30.17F
SCOTTSDALE     SUNNY     72   9   8 VRB5      30.19F
MESA-FALCON    SUNNY     72  10   9 N6        30.17F
MESA-GATEWAY   SUNNY     72  19  14 N7        30.19F
CHANDLER       SUNNY     72  16  12 NE7       30.18F
$$

AZZ027-028-060000-
SOUTHWEST MARICOPA COUNTY AND PINAL COUNTY

CITY           SKY/WX    TMP DP  RH WIND       PRES   REMARKS
CASA GRANDE    SUNNY     70  21  16 E6        30.17F
$$

AZZ503-504-507>509-060000-
SOUTHEAST ARIZONA

CITY           SKY/WX    TMP DP  RH WIND       PRES   REMARKS
TUCSON         SUNNY     70  17  13 NE9       30.18S
RYAN FIELD       N/A     70  27  19 N7        30.17F
NOGALES        SUNNY     66  20  17 NE10G22   30.16S
SAFFORD        SUNNY     63  16  16 SE10      30.23F
$$

AZZ020-021-025-026-031-060000-
SOUTHWEST ARIZONA

CITY           SKY/WX    TMP DP  RH WIND       PRES   REMARKS
YUMA           SUNNY     77  25  14 N9G20     30.17F
$$

CAZ031-033-041-043-047-048-061-060000-
SOUTHERN CALIFORNIA

CITY           SKY/WX    TMP DP  RH WIND       PRES   REMARKS
DOWNTOWN L.A.  SUNNY     74  24  15 VRB5      30.18F
L.A. AIRPORT   MOSUNNY   71  31  22 W13       30.19F
SAN DIEGO      SUNNY     73  36  25 NW13      30.17F
BURBANK        SUNNY     73  21  14 S12       30.17F
ONTARIO        MOSUNNY   74  23  15 NW6       30.18F
RIVERSIDE      SUNNY     77  11   8 N8        30.18F
PALM SPRINGS   SUNNY     76  13   9 E5        30.22F
EL CENTRO NAS  SUNNY     75  27  17 N9        30.20F
IMPERIAL       SUNNY     73  32  22 NW5       30.19F
BLYTHE         SUNNY     72  26  18 NW9       30.21F
$$

NVZ020-UTZ003-060000-
SOUTHERN NEVADA-UTAH

CITY           SKY/WX    TMP DP  RH WIND       PRES   REMARKS
LAS VEGAS      NOT AVBL
SALT LAKE CITY MOSUNNY   48  21  34 CALM      30.41S
$$

NMZ009-TXZ055-060000-
NEW MEXICO-WEST TEXAS

CITY           SKY/WX    TMP DP  RH WIND       PRES   REMARKS
ALBUQUERQUE    SUNNY     50  11  20 SE6       30.30F
EL PASO        SUNNY     49  19  30 E5        30.35S
$$


........................KEY........................
SKY/WX - SKY CONDITION/WEATHER
TMP    - TEMPERATURE IN FAHRENHEIT
DP     - DEW POINT IN FAHRENHEIT
RH     - RELATIVE HUMIDITY IN PERCENT
WIND   - DIRECTION AND SPEED IN MILES PER HOUR (MPH)
VRB    - VARIABLE WIND DIRECTION
PRES   - MEAN SEA LEVEL PRESSURE IN INCHES OF MERCURY
         F - FALLING PRESSURE   R - RISING PRESSURE
         S - STEADY PRESSURE
VSB    - VISIBILITY IN MILES
HX     - HEAT INDEX IN FAHRENHEIT
WCI    - WIND CHILL INDEX IN FAHRENHEIT
TC     - TEMPERATURE IN CELSIUS WHICH IS ALSO KNOWN AS
         TEMPERATURE IN CENTIGRADE
AFB    - AIR FORCE BASE
         LUKE AFB IS LUKE AIR FORCE BASE
         DAVIS-MONTHAN IS DAVIS-MONTHAN AIR FORCE BASE
NAS    - NAVAL AIR STATION
         EL CENTRO NAS IS EL CENTRO NAVAL AIR STATION
N/A    - NOT AVAILABLE




USA.gov is the U.S. government's official web portal to all federal, state and local government web resources and services.